EW1710 Weather Reports


Display with metric or nautical units.
time (UTC)temp
F
wind
direction
speed
MPH
gust
MPH
rain 1hr
in
rain 24hr
in
rain mn
in
humidity
%
barometer
mb
20260506170801 54 10 3.0 3.0 0.00 0.38 0.38 53 1013.5
20260506170257 55 294 5.0 6.0 0.00 0.38 0.38 56 1013.5
20260506165756 56 19 5.0 6.0 0.00 0.38 0.38 51 1013.4
20260506165253 56 335 2.0 2.0 0.00 0.38 0.38 57 1013.3
20260506164750 56 9 6.0 7.0 0.00 0.38 0.38 53 1013.3
20260506164246 56 342 3.0 3.0 0.00 0.38 0.38 57 1013.4
20260506163743 56 20 3.0 5.0 0.00 0.38 0.38 58 1013.2
20260506163238 55 18 2.0 2.0 0.00 0.38 0.38 57 1013.2
20260506162734 54 31 2.0 2.0 0.00 0.38 0.38 61 1013.0
20260506162232 54 13 2.0 2.0 0.00 0.38 0.38 61 1012.9
20260506161729 53 26 4.0 6.0 0.00 0.38 0.38 54 1012.7
20260506161226 54 290 4.0 5.0 0.00 0.38 0.38 59 1012.7
20260506160724 55 349 2.0 3.0 0.00 0.38 0.38 58 1013.3
20260506160220 54 285 1.0 2.0 0.00 0.38 0.38 61 1012.8
20260506155719 55 21 3.0 3.0 0.00 0.38 0.38 61 1012.9
20260506155216 55 5 3.0 7.0 0.00 0.38 0.38 61 1012.8
20260506153323 53 334 3.0 3.0 0.00 0.38 0.38 71 1012.6
20260506152820 53 341 5.0 5.0 0.00 0.38 0.38 68 1012.4
20260506152317 52 249 2.0 2.0 0.00 0.38 0.38 73 1012.3
20260506151816 53 307 2.0 2.0 0.00 0.38 0.38 76 1012.0
20260506151312 53 295 3.0 3.0 0.00 0.38 0.38 73 1012.2
20260506150809 52 271 4.0 5.0 0.00 0.38 0.38 75 1012.2
20260506150307 52 8 4.0 6.0 0.00 0.38 0.38 75 1011.9
20260506145803 51 285 4.0 5.0 0.00 0.38 0.38 78 1012.1
20260506145259 51 7 6.0 7.0 0.00 0.38 0.38 76 1012.0
20260506144757 51 357 3.0 3.0 0.00 0.38 0.38 78 1012.0
20260506144254 51 355 4.0 7.0 0.00 0.38 0.38 77 1011.9
20260506143752 50 307 3.0 2.0 0.00 0.38 0.38 78 1012.2
20260506143249 51 290 3.0 3.0 0.00 0.38 0.38 77 1012.0
20260506142747 50 351 1.0 1.0 0.00 0.38 0.38 80 1011.9
20260506142245 50 293 3.0 5.0 0.00 0.38 0.38 79 1012.0
20260506141743 50 285 4.0 6.0 0.00 0.38 0.38 77 1011.8
20260506141241 50 315 2.0 2.0 0.00 0.38 0.38 80 1011.7
20260506140738 49 288 2.0 2.0 0.00 0.38 0.38 81 1011.8
20260506140235 49 298 4.0 5.0 0.00 0.38 0.38 80 1012.0
20260506135732 49 2 2.0 2.0 0.00 0.38 0.38 84 1011.6
20260506135228 48 16 1.0 1.0 0.00 0.38 0.38 84 1011.8
20260506134725 48 273 3.0 3.0 0.00 0.38 0.38 84 1011.8
20260506134221 48 308 1.0 2.0 0.00 0.38 0.38 86 1011.9
20260506133719 48 332 3.0 3.0 0.00 0.38 0.38 86 1011.7
20260506133215 48 350 1.0 1.0 0.00 0.38 0.38 89 1011.8
20260506132712 48 281 1.0 1.0 0.00 0.38 0.38 89 1011.7
20260506132209 47 338 0.0 0.0 0.00 0.38 0.38 91 1011.7
20260506131707 47 346 3.0 5.0 0.00 0.38 0.38 91 1011.5
20260506131203 48 326 2.0 2.0 0.00 0.38 0.38 92 1011.4
20260506130700 47 351 1.0 1.0 0.00 0.38 0.38 92 1011.4
20260506130157 47 344 2.0 2.0 0.00 0.38 0.38 93 1011.2
20260506125655 47 24 0.0 0.0 0.00 0.38 0.38 93 1011.6
20260506125153 47 11 0.0 0.0 0.00 0.38 0.38 94 1011.0
20260506124650 47 4 0.0 0.0 0.00 0.38 0.38 94 1010.8
20260506124148 47 308 1.0 1.0 0.00 0.38 0.38 94 1010.7
20260506123645 47 319 2.0 2.0 0.00 0.38 0.38 96 1010.8
20260506123144 46 344 1.0 1.0 0.00 0.38 0.38 96 1010.9
20260506122640 46 306 2.0 2.0 0.00 0.38 0.38 96 1010.9
20260506122138 46 313 0.0 0.0 0.00 0.38 0.38 97 1010.9
20260506121635 46 301 3.0 2.0 0.00 0.38 0.38 96 1011.1
20260506121131 45 307 1.0 1.0 0.00 0.38 0.38 97 1010.9
20260506120630 45 302 1.0 1.0 0.00 0.38 0.38 97 1010.9
20260506120127 45 294 0.0 0.0 0.00 0.38 0.38 97 1010.8
20260506115625 45 293 0.0 0.0 0.00 0.38 0.38 97 1010.5
20260506115123 45 357 1.0 1.0 0.00 0.38 0.38 97 1010.7
20260506114620 45 313 0.0 0.0 0.00 0.38 0.38 97 1010.7
20260506114118 45 312 0.0 0.0 0.00 0.38 0.38 97 1010.5
20260506113616 45 312 0.0 0.0 0.00 0.38 0.38 97 1010.3
20260506113113 45 312 0.0 0.0 0.00 0.38 0.38 97 1010.5
20260506112609 45 312 1.0 1.0 0.00 0.38 0.38 97 1010.5
20260506112107 45 312 0.0 0.0 0.00 0.38 0.38 97 1010.4
20260506111604 44 312 1.0 1.0 0.00 0.38 0.38 97 1010.6
20260506111102 44 267 0.0 0.0 0.00 0.38 0.38 97 1010.1
20260506110559 44 267 0.0 0.0 0.00 0.38 0.38 97 1010.1
20260506110056 44 296 0.0 0.0 0.00 0.38 0.38 97 1010.3
20260506105553 44 290 2.0 2.0 0.00 0.38 0.38 97 1009.9
20260506105050 44 18 1.0 1.0 0.00 0.38 0.38 97 1009.5
20260506104548 44 354 0.0 0.0 0.00 0.38 0.38 97 1009.6
20260506104045 44 301 2.0 2.0 0.00 0.38 0.38 97 1009.9
20260506103542 44 339 1.0 1.0 0.00 0.38 0.38 97 1009.6
20260506103039 44 302 2.0 2.0 0.00 0.38 0.38 97 1009.7
20260506102538 44 332 1.0 1.0 0.00 0.38 0.38 97 1009.7
20260506102035 44 317 1.0 1.0 0.00 0.38 0.38 97 1009.4
20260506101531 44 342 1.0 1.0 0.00 0.38 0.38 97 1009.0
20260506101028 44 32 0.0 0.0 0.00 0.38 0.38 97 1008.9
20260506100526 44 39 0.0 0.0 0.00 0.38 0.38 97 1009.0
20260506100024 44 53 1.0 1.0 0.00 0.38 0.38 97 1008.5
20260506095523 45 78 0.0 0.0 0.00 0.38 0.38 97 1008.8
20260506095018 45 77 0.0 0.0 0.00 0.38 0.38 97 1008.9
20260506094517 45 9 1.0 1.0 0.05 0.38 0.38 97 1009.2
20260506094014 45 323 3.0 3.0 0.05 0.38 0.38 97 1009.3
20260506093513 45 313 6.0 9.0 0.00 0.37 0.37 97 1009.9
20260506093010 45 295 3.0 3.0 0.07 0.37 0.37 97 1010.0
20260506092508 46 333 1.0 2.0 0.12 0.37 0.37 97 1010.0
20260506092004 45 315 4.0 5.0 0.05 0.36 0.36 97 1010.0
20260506091502 45 334 2.0 2.0 0.12 0.36 0.36 97 1009.9
20260506090959 45 306 1.0 1.0 0.07 0.35 0.35 97 1009.6
20260506090457 45 312 0.0 0.0 0.05 0.34 0.34 97 1009.3
20260506085953 45 312 1.0 1.0 0.05 0.34 0.34 97 1009.5
20260506085450 45 306 0.0 1.0 0.00 0.33 0.33 97 1009.5
20260506084946 45 303 0.0 0.0 0.00 0.33 0.33 97 1009.7
20260506084443 45 296 2.0 2.0 0.00 0.33 0.33 97 1009.2
20260506083939 45 339 0.0 0.0 0.00 0.33 0.33 97 1009.1
20260506083437 45 339 1.0 1.0 0.00 0.33 0.33 97 1009.4
20260506082934 45 341 0.0 0.0 0.07 0.33 0.33 97 1009.1
20260506082431 45 315 0.0 0.0 0.12 0.33 0.33 97 1009.3
20260506081926 45 319 0.0 0.0 0.05 0.32 0.32 97 1009.5
20260506081425 45 318 1.0 1.0 0.05 0.32 0.32 97 1009.5
20260506080922 45 304 1.0 1.0 0.07 0.31 0.31 97 1009.6
20260506080419 45 311 1.0 1.0 0.12 0.31 0.31 97 1009.6
20260506073403 46 331 2.0 2.0 0.05 0.27 0.27 97 1009.5
20260506072900 46 313 2.0 2.0 0.07 0.26 0.26 97 1009.6
20260506072357 46 337 1.0 1.0 0.07 0.26 0.26 97 1009.1
20260506071855 46 347 3.0 3.0 0.05 0.25 0.25 97 1009.1
20260506071353 46 333 0.0 0.0 0.12 0.25 0.25 97 1008.9
20260506070849 46 310 1.0 1.0 0.07 0.24 0.24 97 1009.0
20260506070346 46 307 1.0 1.0 0.05 0.23 0.23 97 1009.2
20260506062323 46 314 0.0 0.0 0.00 0.19 0.19 96 1009.3
20260506061819 46 319 1.0 1.0 0.05 0.19 0.19 96 1009.5
20260506061316 46 334 0.0 1.0 0.05 0.19 0.19 96 1009.3
20260506060814 46 334 0.0 0.0 0.07 0.18 0.18 96 1009.4
20260506060312 46 334 0.0 0.0 0.12 0.18 0.18 96 1009.4
20260506051244 46 38 0.0 0.0 0.05 0.06 0.06 96 1009.9
20260506050742 46 31 1.0 1.0 0.00 0.05 0.05 96 1009.6
20260506050239 46 341 0.0 0.0 0.07 0.05 0.05 96 1009.7
20260506044730 47 342 1.0 1.0 0.05 0.04 0.04 96 1009.9
20260506044227 47 315 0.0 0.0 0.05 0.04 0.04 96 1009.9
20260506043724 47 328 0.0 0.0 0.07 0.03 0.03 97 1010.0
20260506043221 47 2 0.0 0.0 0.07 0.03 0.03 96 1010.3
20260506042720 47 12 0.0 0.0 0.00 0.02 0.02 97 1010.1
20260506042218 47 45 1.0 1.0 0.00 0.02 0.02 97 1010.1
20260506041716 48 1 0.0 0.0 0.07 0.02 0.02 97 1010.2
20260506041213 48 339 1.0 2.0 0.12 0.02 0.02 97 1010.2
20260506040710 48 325 2.0 2.0 0.12 0.01 0.01 97 1010.4
20260506040207 48 347 0.0 0.0 0.12 0.01 0.01 97 1010.4
20260506035704 48 7 0.0 0.0 0.12 1.11 1.11 97 1010.5
20260506035201 48 6 1.0 1.0 0.12 1.10 1.10 97 1010.3
20260506034657 48 274 1.0 1.0 0.12 1.09 1.09 97 1010.6
20260506034155 48 306 1.0 1.0 0.12 1.08 1.08 97 1010.4
20260506033652 48 301 1.0 1.0 0.12 1.07 1.07 97 1010.7
20260506033149 48 300 1.0 1.0 0.12 1.06 1.06 97 1010.7
20260506032646 48 300 2.0 2.0 0.12 1.05 1.05 97 1010.7
20260506032143 48 306 1.0 1.0 0.12 1.04 1.04 97 1010.6
20260506031640 48 306 0.0 0.0 0.07 1.03 1.03 97 1010.6
20260506031137 49 306 0.0 0.0 0.14 1.03 1.03 97 1010.7
20260506030636 49 307 0.0 0.0 0.12 1.02 1.02 97 1010.8
20260506030132 49 306 0.0 0.0 0.12 1.01 1.01 97 1010.8
20260506025629 49 310 1.0 1.0 0.19 1.00 1.00 97 1010.9
20260506025125 49 319 0.0 0.0 0.17 0.99 0.99 97 1011.0
20260506024623 49 319 0.0 0.0 0.12 0.97 0.97 97 1010.8
20260506024119 49 324 0.0 0.0 0.19 0.96 0.96 97 1010.7
20260506023615 49 241 0.0 0.0 0.24 0.95 0.95 97 1010.4
20260506023113 49 238 0.0 0.0 0.31 0.94 0.94 97 1010.6
20260506022610 49 154 0.0 0.0 0.26 0.92 0.92 97 1010.3
20260506022107 49 302 1.0 1.0 0.19 0.89 0.89 97 1010.5
20260506021605 49 310 0.0 0.0 0.17 0.88 0.88 97 1010.2
20260506021102 49 310 0.0 0.0 0.19 0.87 0.87 97 1010.2
20260506020559 49 284 1.0 1.0 0.12 0.85 0.85 96 1010.3
20260506020056 49 306 0.0 0.0 0.12 0.84 0.84 96 1010.0
20260506015554 49 350 0.0 0.0 0.19 0.83 0.83 96 1010.0
20260506015050 49 350 0.0 0.0 0.17 0.82 0.82 96 1009.5
20260506014548 49 349 0.0 0.0 0.17 0.80 0.80 96 1009.9
20260506014043 49 345 0.0 0.0 0.19 0.79 0.79 96 1010.0
20260506013542 49 340 0.0 0.0 0.14 0.77 0.77 96 1009.9
20260506013038 49 340 0.0 0.0 0.19 0.76 0.76 96 1010.0
20260506012534 49 299 3.0 3.0 0.17 0.75 0.75 96 1010.0
20260506012031 49 304 1.0 1.0 0.17 0.73 0.73 96 1010.2
20260506011529 49 1 0.0 0.0 0.19 0.72 0.72 96 1010.0
20260506011025 49 343 1.0 1.0 0.19 0.70 0.70 96 1009.9
20260506010525 49 309 0.0 0.0 0.12 0.69 0.69 96 1010.0
20260506010021 49 42 1.0 1.0 0.12 0.68 0.68 96 1009.7
20260506005518 49 73 1.0 2.0 0.12 0.67 0.67 96 1009.5
20260506005013 49 68 2.0 2.0 0.19 0.66 0.66 96 1009.3
20260506004511 49 303 3.0 3.0 0.35 0.65 0.65 96 1009.9
20260506004008 49 42 0.0 0.0 0.31 0.63 0.63 96 1009.4
20260506003504 49 58 0.0 0.0 0.12 0.60 0.60 96 1009.5
20260506003000 49 58 0.0 0.0 0.05 0.58 0.58 96 1009.5
20260506002456 49 58 0.0 0.0 0.05 0.58 0.58 96 1009.5
20260506001952 49 57 0.0 0.0 0.00 0.57 0.57 96 1009.4
20260506001449 49 58 0.0 0.0 0.00 0.57 0.57 96 1009.3
20260506000946 49 58 0.0 0.0 0.00 0.57 0.57 96 1009.4
20260506000445 49 61 0.0 0.0 0.00 0.57 0.57 96 1009.5
20260505235940 49 61 0.0 0.0 0.00 0.57 0.57 96 1009.6
20260505235439 49 19 1.0 1.0 0.00 0.57 0.57 95 1009.3
20260505234935 49 20 0.0 0.0 0.07 0.57 0.57 95 1009.4
20260505234433 49 18 1.0 1.0 0.07 0.57 0.57 95 1009.4
20260505233929 50 12 1.0 1.0 0.05 0.56 0.56 95 1009.3
20260505233427 50 24 1.0 1.0 0.12 0.56 0.56 95 1009.5
20260505232924 50 25 1.0 1.0 0.12 0.55 0.55 95 1009.5
20260505232422 50 31 0.0 1.0 0.19 0.54 0.54 95 1009.6
20260505231919 50 25 0.0 0.0 0.26 0.53 0.53 95 1009.5
20260505231416 50 52 0.0 0.0 0.24 0.51 0.51 95 1009.9
20260505230914 50 64 1.0 1.0 0.17 0.49 0.49 95 1009.9
20260505230412 50 337 1.0 1.0 0.24 0.48 0.48 95 1009.9
20260505225908 51 29 3.0 3.0 0.50 0.46 0.46 95 1009.7
20260505225405 51 329 1.0 1.0 0.50 0.44 0.44 94 1010.1
20260505224901 52 307 3.0 5.0 0.31 0.39 0.39 94 1010.1
20260505224358 52 2 1.0 1.0 0.17 0.36 0.36 95 1009.6
20260505223855 52 345 1.0 1.0 0.05 0.34 0.34 94 1009.2
20260505223352 52 8 0.0 0.0 0.00 0.33 0.33 94 1009.4
20260505222848 52 2 1.0 2.0 0.07 0.33 0.33 94 1009.2
20260505222344 52 16 0.0 0.0 0.12 0.33 0.33 94 1009.3
20260505221841 53 349 1.0 1.0 0.05 0.32 0.32 94 1009.4
20260505221338 53 8 0.0 0.0 0.00 0.31 0.31 93 1009.3
20260505220835 53 26 3.0 3.0 0.00 0.31 0.31 92 1009.4
20260505220332 55 342 1.0 2.0 0.07 0.31 0.31 92 1009.2
20260505215830 57 343 3.0 3.0 0.07 0.31 0.31 94 1009.3
20260505215328 57 325 1.0 1.0 0.00 0.30 0.30 94 1009.3
20260505214825 57 18 1.0 1.0 0.05 0.30 0.30 94 1009.3
20260505214323 57 34 0.0 0.0 0.12 0.30 0.30 94 1009.1
20260505213819 57 1 0.0 0.0 0.19 0.29 0.29 93 1008.8
20260505213317 57 0 0.0 0.0 0.19 0.29 0.29 93 1009.1
20260505212813 57 359 1.0 1.0 0.07 0.26 0.26 93 1009.0
20260505212310 57 312 1.0 1.0 0.07 0.26 0.26 93 1009.0
20260505211806 57 331 1.0 1.0 0.00 0.25 0.25 93 1009.2
20260505211304 57 338 1.0 1.0 0.12 0.25 0.25 93 1009.2
20260505210800 57 318 1.0 1.0 0.59 0.25 0.25 93 1009.3
20260505210258 57 36 0.0 0.0 0.71 0.23 0.23 92 1009.2
20260505205754 57 359 1.0 2.0 0.38 0.16 0.16 92 1009.4
20260505205253 58 165 1.0 1.0 0.24 0.11 0.11 92 1009.1
20260505204749 58 318 1.0 1.0 0.28 0.10 0.10 91 1009.2
20260505204247 58 9 0.0 0.0 0.19 0.07 0.07 90 1009.1
20260505203744 58 8 0.0 0.0 0.12 0.05 0.05 90 1009.2
20260505203241 58 319 0.0 0.0 0.05 0.04 0.04 89 1009.0
20260505202736 58 4 1.0 1.0 0.07 0.03 0.03 89 1008.9
20260505202233 58 328 0.0 0.0 0.07 0.03 0.03 89 1009.1
20260505201729 58 319 3.0 2.0 0.00 0.02 0.02 87 1009.3
20260505201227 59 306 3.0 3.0 0.00 0.02 0.02 87 1009.3
20260505200725 59 282 4.0 5.0 0.00 0.02 0.02 86 1009.4
20260505200222 60 26 3.0 2.0 0.00 0.02 0.02 86 1009.0
20260505195717 60 351 1.0 2.0 0.00 0.02 0.02 85 1009.2
20260505195215 60 306 3.0 5.0 0.00 0.02 0.02 84 1009.0
20260505194713 61 302 2.0 2.0 0.07 0.02 0.02 83 1009.1
20260505194209 61 259 0.0 0.0 0.07 0.02 0.02 81 1009.2
20260505193705 62 253 2.0 3.0 0.00 0.01 0.01 79 1009.2
20260505193202 62 269 3.0 3.0 0.00 0.01 0.01 75 1008.9
20260505192701 63 290 1.0 2.0 0.00 0.01 0.01 72 1009.1
20260505192158 64 332 3.0 3.0 0.00 0.01 0.01 71 1009.3
20260505191656 64 330 2.0 2.0 0.00 0.01 0.01 71 1009.0
20260505191154 64 27 0.0 0.0 0.00 0.01 0.01 71 1009.0
20260505190650 64 9 0.0 0.0 0.00 0.01 0.01 70 1009.1
20260505190149 64 323 0.0 0.0 0.00 0.01 0.01 69 1009.2
20260505185647 64 343 1.0 1.0 0.00 0.01 0.01 70 1009.2
20260505185143 64 292 4.0 5.0 0.00 0.01 0.01 69 1009.5
20260505184639 64 254 1.0 1.0 0.00 0.01 0.01 66 1009.6
20260505184136 64 239 1.0 1.0 0.00 0.01 0.01 66 1009.2
20260505183633 65 270 4.0 6.0 0.00 0.01 0.01 67 1009.4
20260505183131 64 16 0.0 0.0 0.00 0.01 0.01 68 1009.5
20260505182627 64 327 1.0 2.0 0.00 0.01 0.01 67 1009.4
20260505182124 65 328 9.0 10.0 0.00 0.01 0.01 64 1009.3
20260505181620 66 302 3.0 3.0 0.00 0.01 0.01 65 1009.3
20260505181118 65 330 1.0 2.0 0.00 0.01 0.01 67 1009.3
20260505180614 65 292 3.0 3.0 0.00 0.01 0.01 65 1009.3
20260505180112 65 211 2.0 3.0 0.00 0.01 0.01 64 1009.6
20260505175607 65 315 6.0 7.0 0.00 0.01 0.01 64 1009.2
20260505175104 65 317 5.0 6.0 0.00 0.01 0.01 63 1009.2
20260505174601 66 212 3.0 6.0 0.00 0.01 0.01 63 1009.2
20260505174056 67 276 7.0 11.0 0.00 0.01 0.01 61 1009.0
20260505173553 66 298 3.0 3.0 0.00 0.01 0.01 62 1009.3
20260505173050 66 339 4.0 3.0 0.00 0.01 0.01 61 1009.0
20260505172548 66 305 3.0 3.0 0.00 0.01 0.01 62 1009.2
20260505172044 66 44 3.0 5.0 0.00 0.01 0.01 61 1009.1
20260505171539 66 303 4.0 7.0 0.00 0.01 0.01 61 1009.1